Location: Alto Pass Reservoir
(37.5801°N, 89.3084°W)
Time: 14:22:57
(UTC+00:00)

Cosmos 2278 - Pass Details

Date: 08 December 2021
Orbit: 839 x 853 km, 71.1° (Epoch: 19 January)

Event Time Altitude Azimuth Distance (km) Brightness Sun altitude
Rises 23:04:36 0° 343° (NNW) 3,425 6.8 -5.4°
Reaches altitude 10° 23:07:09 10° 349° (NNW) 2,484 6.0 -5.9°
Maximum altitude 23:12:40 49° 64° (ENE) 1,082 3.9 -6.9°
Drops below altitude 10° 23:18:08 10° 139° (SE) 2,462 5.9 -7.9°
Sets 23:20:39 0° 144° (SE) 3,391 6.7 -8.3°
